| time (UTC) | temp F | wind direction | speed knots | gust knots | rain 1hr in | rain 24hr in | rain mn in | humidity % | barometer mb |
| 20260507040054 | 51 | 294 | 1.7 | 4.3 | 0.00 | 0.01 | 0.00 | 85 | 1011.3 |
| 20260507034555 | 51 | 245 | 1.7 | 4.3 | 0.00 | 0.01 | 0.00 | 85 | 1011.2 |
| 20260507033051 | 51 | 244 | 2.6 | 6.1 | 0.00 | 0.01 | 0.00 | 85 | 1011.2 |
| 20260507031545 | 51 | 258 | 1.7 | 5.2 | 0.00 | 0.01 | 0.00 | 85 | 1010.9 |
| 20260507030044 | 51 | 264 | 1.7 | 6.1 | 0.00 | 0.01 | 0.00 | 85 | 1010.8 |
| 20260507024543 | 51 | 261 | 1.7 | 7.0 | 0.00 | 0.01 | 0.00 | 85 | 1010.8 |
| 20260507023047 | 51 | 290 | 3.5 | 7.0 | 0.00 | 0.01 | 0.00 | 85 | 1010.7 |
| 20260507021543 | 51 | 303 | 3.5 | 8.7 | 0.00 | 0.01 | 0.00 | 85 | 1010.6 |
| 20260507020055 | 51 | 271 | 2.6 | 7.8 | 0.00 | 0.01 | 0.00 | 85 | 1010.4 |
| 20260507014536 | 51 | 291 | 3.5 | 7.8 | 0.00 | 0.01 | 0.00 | 85 | 1010.4 |
| 20260507013047 | 51 | 287 | 3.5 | 10.4 | 0.00 | 0.01 | 0.00 | 85 | 1010.3 |
| 20260507011533 | 51 | 267 | 1.7 | 7.0 | 0.00 | 0.01 | 0.00 | 84 | 1010.2 |
| 20260507010035 | 51 | 273 | 2.6 | 7.0 | 0.00 | 0.01 | 0.00 | 84 | 1010.1 |
| 20260507004529 | 51 | 265 | 1.7 | 5.2 | 0.00 | 0.01 | 0.00 | 84 | 1010.2 |
| 20260507003038 | 51 | 259 | 1.7 | 7.8 | 0.00 | 0.01 | 0.00 | 84 | 1010.2 |
| 20260507001527 | 51 | 282 | 2.6 | 5.2 | 0.00 | 0.01 | 0.00 | 84 | 1010.1 |
| 20260507000030 | 51 | 263 | 1.7 | 4.3 | 0.00 | 0.01 | 0.00 | 84 | 1010.1 |
| 20260506234524 | 51 | 309 | 1.7 | 6.1 | 0.00 | 0.01 | 0.00 | 84 | 1010.1 |
| 20260506233027 | 51 | 310 | 1.7 | 5.2 | 0.00 | 0.01 | 0.00 | 84 | 1010.0 |
| 20260506231521 | 51 | 287 | 0.9 | 4.3 | 0.00 | 0.01 | 0.00 | 84 | 1009.9 |
| 20260506230020 | 51 | 264 | 2.6 | 6.1 | 0.00 | 0.01 | 0.00 | 84 | 1009.8 |
| 20260506224518 | 51 | 285 | 4.3 | 7.8 | 0.00 | 0.01 | 0.00 | 84 | 1009.7 |
| 20260506223015 | 51 | 286 | 2.6 | 4.3 | 0.00 | 0.01 | 0.00 | 84 | 1009.7 |
| 20260506221514 | 51 | 323 | 1.7 | 3.5 | 0.00 | 0.01 | 0.00 | 85 | 1009.6 |
| 20260506220012 | 51 | 341 | 0.9 | 5.2 | 0.00 | 0.01 | 0.00 | 85 | 1009.4 |
| 20260506214510 | 51 | 286 | 1.7 | 8.7 | 0.00 | 0.05 | 0.01 | 84 | 1009.3 |
| 20260506213008 | 51 | 307 | 2.6 | 10.4 | 0.00 | 0.05 | 0.01 | 84 | 1009.2 |
| 20260506211505 | 52 | 336 | 1.7 | 4.3 | 0.00 | 0.05 | 0.01 | 84 | 1009.1 |
| 20260506210006 | 52 | 323 | 3.5 | 7.0 | 0.00 | 0.05 | 0.01 | 84 | 1008.9 |
| 20260506204501 | 52 | 313 | 1.7 | 8.7 | 0.00 | 0.08 | 0.01 | 83 | 1008.7 |
| 20260506203059 | 53 | 314 | 2.6 | 8.7 | 0.00 | 0.08 | 0.01 | 83 | 1008.7 |
| 20260506201555 | 53 | 276 | 1.7 | 7.0 | 0.00 | 0.08 | 0.01 | 82 | 1008.5 |
| 20260506200053 | 53 | 298 | 1.7 | 8.7 | 0.00 | 0.08 | 0.01 | 82 | 1008.4 |
| 20260506194551 | 54 | 349 | 2.6 | 7.8 | 0.00 | 0.08 | 0.01 | 82 | 1008.3 |
| 20260506193048 | 54 | 323 | 1.7 | 4.3 | 0.00 | 0.08 | 0.01 | 82 | 1008.1 |
| 20260506191546 | 54 | 274 | 2.6 | 7.0 | 0.00 | 0.08 | 0.01 | 82 | 1007.9 |
| 20260506190044 | 55 | 232 | 1.7 | 7.0 | 0.00 | 0.08 | 0.01 | 81 | 1007.8 |
| 20260506184549 | 55 | 291 | 1.7 | 7.0 | 0.00 | 0.08 | 0.01 | 81 | 1007.5 |
| 20260506183052 | 55 | 334 | 3.5 | 8.7 | 0.00 | 0.08 | 0.01 | 81 | 1007.1 |
| 20260506181604 | 56 | 277 | 4.3 | 9.6 | 0.00 | 0.08 | 0.01 | 81 | 1007.0 |
| 20260506180037 | 56 | 320 | 3.5 | 9.6 | 0.00 | 0.08 | 0.01 | 81 | 1006.8 |
| 20260506174534 | 57 | 277 | 4.3 | 11.3 | 0.00 | 0.08 | 0.01 | 81 | 1006.7 |
| 20260506173048 | 57 | 292 | 5.2 | 11.3 | 0.00 | 0.08 | 0.01 | 81 | 1006.4 |
| 20260506171533 | 57 | 286 | 6.1 | 13.0 | 0.00 | 0.08 | 0.01 | 82 | 1006.2 |
| 20260506170038 | 58 | 270 | 4.3 | 9.6 | 0.00 | 0.08 | 0.01 | 81 | 1006.2 |
| 20260506164537 | 58 | 315 | 6.1 | 11.3 | 0.00 | 0.08 | 0.01 | 81 | 1006.1 |
| 20260506163035 | 58 | 304 | 7.0 | 14.8 | 0.00 | 0.08 | 0.01 | 79 | 1006.3 |
| 20260506161528 | 60 | 225 | 3.5 | 11.3 | 0.00 | 0.08 | 0.01 | 76 | 1006.1 |
| 20260506160026 | 62 | 280 | 7.0 | 14.8 | 0.00 | 0.08 | 0.01 | 71 | 1005.9 |
| 20260506154526 | 64 | 269 | 8.7 | 15.6 | 0.00 | 0.09 | 0.01 | 67 | 1005.8 |
| 20260506153025 | 64 | 248 | 5.2 | 11.3 | 0.00 | 0.09 | 0.01 | 64 | 1005.5 |
| 20260506151524 | 64 | 258 | 2.6 | 8.7 | 0.00 | 0.09 | 0.01 | 64 | 1005.4 |
| 20260506150024 | 65 | 209 | 3.5 | 12.2 | 0.00 | 0.09 | 0.01 | 62 | 1005.2 |
| 20260506144525 | 65 | 201 | 4.3 | 8.7 | 0.00 | 0.11 | 0.01 | 62 | 1005.1 |
| 20260506143023 | 66 | 228 | 6.1 | 11.3 | 0.00 | 0.11 | 0.01 | 61 | 1005.2 |
| 20260506141521 | 64 | 281 | 2.6 | 11.3 | 0.00 | 0.11 | 0.01 | 64 | 1005.2 |
| 20260506140021 | 64 | 207 | 3.5 | 7.8 | 0.00 | 0.11 | 0.01 | 63 | 1005.2 |
| 20260506134519 | 65 | 247 | 3.5 | 11.3 | 0.00 | 0.22 | 0.01 | 63 | 1005.2 |
| 20260506133022 | 65 | 218 | 5.2 | 11.3 | 0.00 | 0.22 | 0.01 | 62 | 1005.2 |
| 20260506131524 | 65 | 236 | 6.1 | 10.4 | 0.00 | 0.22 | 0.01 | 61 | 1005.3 |
| 20260506130016 | 65 | 212 | 3.5 | 13.0 | 0.00 | 0.22 | 0.01 | 61 | 1005.2 |
| 20260506124514 | 65 | 251 | 3.5 | 12.2 | 0.00 | 0.22 | 0.01 | 64 | 1005.3 |
| 20260506123014 | 65 | 176 | 6.1 | 12.2 | 0.00 | 0.22 | 0.01 | 63 | 1005.2 |
| 20260506121509 | 65 | 222 | 4.3 | 12.2 | 0.00 | 0.22 | 0.01 | 63 | 1005.3 |
| 20260506120016 | 64 | 250 | 4.3 | 9.6 | 0.00 | 0.22 | 0.01 | 63 | 1005.4 |
| 20260506114518 | 64 | 192 | 5.2 | 8.7 | 0.00 | 0.22 | 0.01 | 64 | 1005.5 |
| 20260506113021 | 64 | 251 | 0.9 | 8.7 | 0.00 | 0.22 | 0.01 | 65 | 1005.5 |
| 20260506111504 | 64 | 194 | 6.1 | 11.3 | 0.00 | 0.22 | 0.01 | 66 | 1005.6 |
| 20260506110003 | 63 | 210 | 4.3 | 7.0 | 0.00 | 0.22 | 0.01 | 69 | 1005.7 |
| 20260506104606 | 62 | 213 | 4.3 | 9.6 | 0.00 | 0.22 | 0.01 | 69 | 1005.8 |
| 20260506103100 | 62 | 223 | 4.3 | 8.7 | 0.00 | 0.22 | 0.01 | 69 | 1005.9 |
| 20260506101557 | 61 | 255 | 4.3 | 9.6 | 0.00 | 0.22 | 0.01 | 70 | 1006.0 |
| 20260506100056 | 61 | 230 | 4.3 | 8.7 | 0.00 | 0.22 | 0.01 | 72 | 1006.0 |
| 20260506094557 | 60 | 243 | 5.2 | 8.7 | 0.00 | 0.22 | 0.01 | 73 | 1006.0 |
| 20260506093056 | 60 | 247 | 3.5 | 7.8 | 0.01 | 0.22 | 0.01 | 72 | 1005.9 |
| 20260506091559 | 61 | 235 | 3.5 | 7.8 | 0.01 | 0.22 | 0.01 | 70 | 1005.7 |
| 20260506090100 | 61 | 255 | 4.3 | 12.2 | 0.01 | 0.22 | 0.01 | 71 | 1005.8 |
| 20260506084553 | 61 | 223 | 7.0 | 10.4 | 0.01 | 0.22 | 0.01 | 71 | 1005.8 |
| 20260506083050 | 62 | 241 | 6.1 | 13.0 | 0.00 | 0.21 | 0.00 | 71 | 1005.6 |
| 20260506081546 | 60 | 237 | 3.5 | 10.4 | 0.00 | 0.21 | 0.00 | 75 | 1005.5 |
| 20260506073038 | 59 | 197 | 4.3 | 7.0 | 0.00 | 0.21 | 0.00 | 80 | 1005.5 |
| 20260506071535 | 58 | 210 | 4.3 | 8.7 | 0.00 | 0.21 | 0.00 | 82 | 1005.4 |
| 20260506061523 | 56 | 197 | 0.0 | 7.0 | 0.00 | 0.21 | 0.00 | 90 | 1005.4 |
| 20260506044512 | 53 | 147 | 0.0 | 4.3 | 0.00 | 0.21 | 0.00 | 94 | 1005.4 |
| 20260506043013 | 53 | 151 | 0.0 | 2.6 | 0.00 | 0.21 | 0.00 | 94 | 1005.4 |
| 20260506041507 | 54 | 147 | 0.0 | 5.2 | 0.00 | 0.21 | 0.00 | 94 | 1005.5 |